Weather History for Little Rock, AR

Change the Weather History Date:

Wednesday, June 12, 2013

  Actual Average Record
Temperature  
Mean Temperature 85 °F 78 °F  
Max Temperature 94 °F 88 °F 98 °F (1977)
Min Temperature 75 °F 69 °F 56 °F (1995)
Degree Days  
Heating Degree Days 0 0  
Month to date heating degree days 0 0  
Since 1 June heating degree days 0 0  
Since 1 July heating degree days 3029 3005  
Cooling Degree Days 20 13  
Month to date cooling degree days 131 141  
Year to date cooling degree days 392 437  
Since 1 June cooling degree days 131 141  
Growing Degree Days 34 (Base 50)    
Moisture  
Dew Point 71 °F    
Average Humidity 67    
Maximum Humidity 87    
Minimum Humidity 46    
Precipitation  
Precipitation 0.00 in 0.10 in 1.23 in (1994)
Month to date precipitation 3.00 1.42  
Year to date precipitation 28.62 23.02  
Snow  
Snow 0.00 in 0.00 in - ()
Month to date snowfall 0.0 0.0  
Since 1 June snowfall 0.0 0.0  
Since 1 July snowfall 10.6 4.4  
Snow Depth 0.00 in    
Sea Level Pressure  
Sea Level Pressure 29.99 in    
Wind  
Wind Speed 9 mph (SW)    
Max Wind Speed 20 mph    
Max Gust Speed 26 mph    
Visibility 10 miles    
Events      
T = Trace of Precipitation, MM = Missing Value Source: NWS Daily Summary

Daily Weather History Graph

Daily Weather History Graph

Search for Another Location

Airport:

Trip Planner

Search our weather history database for the weather conditions in past years. The results will help you decide how hot, cold, wet, or windy it might be!

Date:

Astronomy

Jun. 12, 2013 Rise Set
Actual Time 5:55 AM CDT 8:22 PM CDT
Civil Twilight 5:25 AM CDT 8:52 PM CDT
Nautical Twilight 4:49 AM CDT 9:28 PM CDT
Astronomical Twilight 4:09 AM CDT 10:08 PM CDT
Moon 9:28 AM CDT (6/12) 11:06 PM CDT (6/12)
Length of Visible Light 15h 26m
Length of Day
14h 27m
Waxing Crescent, 14% of the Moon is Illuminated
Jun 12
Waxing Crescent
Jun 16
First Quarter
Jun 23
Full
Jun 29
Last Quarter
Jul 8
New

Hourly Weather History & Observations

Time (CDT) Temp. Heat Index Dew Point Humidity Pressure Visibility Wind Dir Wind Speed Gust Speed Precip Events Conditions
12:53 AM 78.1 °F - 72.0 °F 81% 30.00 in 10.0 mi SSW 3.5 mph - N/A   Clear
1:53 AM 75.9 °F - 72.0 °F 87% 29.99 in 10.0 mi Calm Calm - N/A   Clear
2:53 AM 78.1 °F - 72.0 °F 81% 29.98 in 10.0 mi WSW 6.9 mph - N/A   Clear
3:53 AM 77.0 °F - 72.0 °F 84% 29.98 in 10.0 mi SW 6.9 mph - N/A   Clear
4:53 AM 77.0 °F - 72.0 °F 84% 29.99 in 10.0 mi SW 8.1 mph - N/A   Clear
5:53 AM 75.9 °F - 71.1 °F 85% 30.00 in 10.0 mi Calm Calm - N/A   Partly Cloudy
6:53 AM 75.9 °F - 72.0 °F 87% 30.03 in 9.0 mi Calm Calm - N/A   Clear
7:53 AM 79.0 °F - 73.0 °F 82% 30.04 in 10.0 mi SW 5.8 mph - N/A   Clear
8:53 AM 82.9 °F 88.8 °F 73.0 °F 72% 30.05 in 10.0 mi SW 11.5 mph - N/A   Clear
9:53 AM 87.1 °F 95.4 °F 73.9 °F 65% 30.05 in 10.0 mi SW 16.1 mph 19.6 mph N/A   Partly Cloudy
10:53 AM 89.1 °F 96.0 °F 72.0 °F 57% 30.05 in 10.0 mi SW 13.8 mph 25.3 mph N/A   Partly Cloudy
11:53 AM 90.0 °F 97.9 °F 73.0 °F 57% 30.04 in 10.0 mi SW 13.8 mph 18.4 mph N/A   Partly Cloudy
12:53 PM 91.9 °F 99.5 °F 72.0 °F 52% 30.04 in 10.0 mi SSW 15.0 mph 23.0 mph N/A   Partly Cloudy
1:53 PM 91.9 °F 96.9 °F 69.1 °F 47% 30.01 in 10.0 mi SW 18.4 mph 23.0 mph N/A   Partly Cloudy
2:53 PM 93.9 °F 99.1 °F 69.1 °F 44% 29.99 in 10.0 mi SW 15.0 mph 23.0 mph N/A   Scattered Clouds
3:53 PM 93.0 °F 97.9 °F 69.1 °F 45% 29.97 in 10.0 mi SSW 16.1 mph 23.0 mph N/A   Scattered Clouds
4:53 PM 93.0 °F 99.0 °F 70.0 °F 47% 29.95 in 10.0 mi SW 11.5 mph - N/A   Clear
5:53 PM 91.0 °F 95.2 °F 68.0 °F 47% 29.93 in 10.0 mi SSW 9.2 mph 19.6 mph N/A   Clear
6:53 PM 90.0 °F 94.5 °F 69.1 °F 50% 29.93 in 10.0 mi SW 10.4 mph - N/A   Clear
7:53 PM 87.1 °F 92.8 °F 71.1 °F 59% 29.94 in 10.0 mi SW 8.1 mph - N/A   Clear
8:53 PM 82.9 °F 88.0 °F 72.0 °F 69% 29.95 in 10.0 mi SSW 6.9 mph - N/A   Partly Cloudy
9:53 PM 82.0 °F 87.4 °F 73.0 °F 74% 29.96 in 10.0 mi SSW 5.8 mph - N/A   Partly Cloudy
10:53 PM 81.0 °F 85.8 °F 73.0 °F 77% 29.97 in 9.0 mi SW 5.8 mph - N/A   Partly Cloudy
11:53 PM 79.0 °F - 72.0 °F 79% 29.96 in 10.0 mi SSW 5.8 mph - N/A   Partly Cloudy